DW9234 Weather Reports


Display with metric or nautical units.
time (UTC)temp
F
wind
direction
speed
MPH
gust
MPH
rain 1hr
in
rain 24hr
in
rain mn
in
humidity
%
barometer
mb
20260506191004 65 73 3.0 12.0 0.00 0.00 0.08 68 1009.7
20260506190005 65 62 3.0 7.0 0.00 0.00 0.08 69 1009.7
20260506185004 64 239 1.0 10.0 0.00 0.00 0.08 70 1009.8
20260506184003 64 314 3.0 7.0 0.00 0.00 0.08 71 1009.7
20260506183003 64 80 4.0 7.0 0.00 0.00 0.08 72 1009.7
20260506182004 63 90 4.0 8.0 0.00 0.00 0.08 73 1010.0
20260506181003 63 215 2.0 6.0 0.00 0.00 0.08 73 1010.0
20260506174003 63 77 4.0 9.0 0.00 0.00 0.08 75 1010.2
20260506173003 62 37 1.0 7.0 0.00 0.00 0.08 75 1010.1
20260506172004 62 85 1.0 7.0 0.00 0.00 0.08 74 1010.2
20260506171004 62 130 4.0 10.0 0.00 0.00 0.08 74 1010.5
20260506170004 62 84 1.0 5.0 0.00 0.00 0.08 74 1010.6
20260506165005 62 320 3.0 7.0 0.00 0.00 0.08 74 1010.4
20260506164004 63 106 5.0 9.0 0.00 0.00 0.08 74 1010.6
20260506163003 63 95 5.0 7.0 0.00 0.00 0.08 74 1010.6
20260506162003 62 61 2.0 8.0 0.00 0.00 0.08 73 1010.8
20260506160004 62 254 4.0 7.0 0.00 0.00 0.07 71 1010.8
20260506155004 63 57 1.0 8.0 0.00 0.00 0.05 71 1011.2
20260506154003 63 71 5.0 7.0 0.00 0.00 0.05 70 1011.5
20260506153003 63 215 4.0 6.0 0.00 0.00 0.04 68 1011.6
20260506152003 64 30 0.0 5.0 0.00 0.00 0.02 67 1011.8
20260506151004 64 140 3.0 10.0 0.00 0.00 0.02 66 1011.6
20260506150004 64 279 5.0 6.0 0.00 0.00 0.01 65 1011.4
20260506145004 65 85 2.0 5.0 0.00 0.00 0.01 63 1011.5
20260506144003 66 98 2.0 9.0 0.00 0.00 0.00 61 1011.6
20260506142004 67 52 2.0 9.0 0.00 0.00 0.00 57 1011.6
20260506135003 68 42 5.0 8.0 0.00 0.00 0.00 53 1011.5
20260506134003 68 79 6.0 11.0 0.00 0.00 0.00 54 1011.4
20260506133005 67 92 4.0 7.0 0.00 0.00 0.00 55 1011.3
20260506131004 66 355 4.0 8.0 0.00 0.00 0.00 56 1011.5
20260506130005 66 105 1.0 10.0 0.00 0.00 0.00 56 1011.5
20260506125003 66 69 2.0 11.0 0.00 0.00 0.00 57 1011.6
20260506124004 66 31 2.0 9.0 0.00 0.00 0.00 58 1011.7
20260506123003 66 295 2.0 11.0 0.00 0.00 0.00 57 1011.7
20260506122004 66 52 6.0 8.0 0.00 0.00 0.00 58 1011.6
20260506121004 66 100 5.0 11.0 0.00 0.00 0.00 58 1011.5
20260506120004 66 61 7.0 9.0 0.00 0.00 0.00 59 1011.4
20260506115003 66 68 1.0 8.0 0.00 0.00 0.00 59 1011.3
20260506114005 66 109 1.0 10.0 0.00 0.00 0.00 59 1011.3
20260506112003 65 60 0.0 12.0 0.00 0.00 0.00 59 1011.2
20260506105004 65 28 0.0 9.0 0.00 0.00 0.00 59 1011.1
20260506104004 65 322 2.0 8.0 0.00 0.00 0.00 59 1011.2
20260506103004 65 355 1.0 9.0 0.00 0.00 0.00 59 1011.2
20260506102004 65 61 7.0 9.0 0.00 0.00 0.00 59 1011.1
20260506101003 65 74 2.0 6.0 0.00 0.00 0.00 59 1011.0
20260506095005 65 107 2.0 8.0 0.00 0.00 0.00 59 1010.9
20260506094004 65 112 2.0 10.0 0.00 0.00 0.00 59 1011.0
20260506093005 66 324 1.0 7.0 0.00 0.00 0.00 58 1011.2
20260506092004 66 83 3.0 8.0 0.00 0.00 0.00 58 1011.1
20260506091004 66 132 1.0 9.0 0.00 0.00 0.00 58 1011.1
20260506090005 66 115 2.0 6.0 0.00 0.00 0.00 57 1011.1
20260506085004 67 60 5.0 6.0 0.00 0.00 0.00 57 1011.0
20260506083005 67 124 4.0 11.0 0.00 0.00 0.00 56 1011.1
20260506082004 67 126 2.0 8.0 0.00 0.00 0.00 56 1011.1
20260506081005 67 65 5.0 9.0 0.00 0.00 0.00 56 1011.2
20260506072005 66 59 1.0 6.0 0.00 0.00 0.00 58 1011.5
20260506071005 66 77 2.0 7.0 0.00 0.00 0.00 58 1011.5
20260506062005 66 94 1.0 6.0 0.00 0.00 0.00 58 1011.7
20260506061005 66 55 0.0 4.0 0.00 0.00 0.00 58 1011.8
20260506051005 67 92 2.0 7.0 0.00 0.00 0.00 54 1012.1
20260506045005 68 102 0.0 5.0 0.00 0.00 0.00 52 1012.3
20260506044004 68 94 5.0 5.0 0.00 0.00 0.00 51 1012.1
20260506043005 68 67 0.0 5.0 0.00 0.00 0.00 51 1012.2
20260506042005 68 93 0.0 6.0 0.00 0.00 0.00 50 1012.1
20260506041005 69 115 0.0 5.0 0.00 0.00 0.00 49 1012.1
20260506035005 69 109 1.0 4.0 0.00 0.00 0.00 48 1012.0
20260506034004 69 63 4.0 7.0 0.00 0.00 0.00 48 1011.8
20260506033005 69 95 2.0 6.0 0.00 0.00 0.00 47 1011.9
20260506032004 69 88 1.0 5.0 0.00 0.00 0.00 48 1011.9
20260506031004 69 10 2.0 8.0 0.00 0.00 0.00 47 1011.9
20260506030006 69 76 0.0 6.0 0.00 0.00 0.00 47 1012.0
20260506022005 70 263 1.0 7.0 0.00 0.00 0.00 45 1012.2
20260506020005 71 107 0.0 6.0 0.00 0.00 0.00 44 1012.2
20260506015005 72 113 2.0 5.0 0.00 0.00 0.00 43 1011.9
20260506014004 72 87 1.0 7.0 0.00 0.00 0.00 42 1011.8
20260506013005 73 128 2.0 7.0 0.00 0.00 0.00 41 1011.8
20260506012005 73 225 1.0 8.0 0.00 0.00 0.00 39 1011.6
20260506011004 73 105 2.0 6.0 0.00 0.00 0.00 38 1011.6
20260506010004 74 88 1.0 6.0 0.00 0.00 0.00 37 1011.4
20260506005006 74 61 1.0 6.0 0.00 0.00 0.00 37 1011.3
20260506003005 75 73 2.0 6.0 0.00 0.00 0.00 36 1011.2
20260506002005 75 136 2.0 7.0 0.00 0.00 0.00 34 1011.0
20260506001004 75 66 4.0 7.0 0.00 0.00 0.00 33 1010.8
20260506000005 76 53 2.0 7.0 0.00 0.00 0.00 33 1010.8
20260505235004 77 59 2.0 10.0 0.00 0.00 0.00 32 1010.5
20260505234004 77 88 5.0 11.0 0.00 0.00 0.00 31 1010.7
20260505232004 79 69 7.0 10.0 0.00 0.00 0.00 28 1010.7
20260505231004 79 111 2.0 7.0 0.00 0.00 0.00 28 1010.6
20260505230004 79 153 2.0 9.0 0.00 0.00 0.00 26 1010.6
20260505225004 80 82 5.0 18.0 0.00 0.00 0.00 26 1010.6
20260505224004 80 69 1.0 11.0 0.00 0.00 0.00 26 1010.4
20260505223004 80 75 3.0 9.0 0.00 0.00 0.00 27 1010.6
20260505221004 81 123 1.0 10.0 0.00 0.00 0.00 25 1010.7
20260505215006 81 74 4.0 9.0 0.00 0.00 0.00 27 1010.5
20260505214004 81 37 3.0 12.0 0.00 0.00 0.00 25 1010.4
20260505213004 82 229 3.0 10.0 0.00 0.00 0.00 25 1010.4
20260505212004 82 157 1.0 9.0 0.00 0.00 0.00 26 1010.5
20260505211005 82 44 2.0 10.0 0.00 0.00 0.00 26 1010.3
20260505210005 82 323 12.0 15.0 0.00 0.00 0.00 26 1010.4
20260505205004 82 88 3.0 12.0 0.00 0.00 0.00 25 1010.3
20260505204005 82 251 5.0 12.0 0.00 0.00 0.00 24 1010.5
20260505202005 83 66 5.0 10.0 0.00 0.00 0.00 23 1010.4
20260505195005 83 61 4.0 14.0 0.00 0.00 0.00 24 1010.7
20260505194005 83 151 1.0 14.0 0.00 0.00 0.00 23 1010.7
20260505193004 84 92 5.0 11.0 0.00 0.00 0.00 22 1010.8
20260505192004 84 114 5.0 11.0 0.00 0.00 0.00 22 1010.9